User: anonymous   Login
Location: Beccas
(43.4309°N, 0.1528°E)
Time: 23:17:22
(UTC+00:00)
Language:

Cosmos 1980 Rocket - Orbit

View from above orbital plane
View from above orbital plane
View from above satellite
View from above satellite

Ground track
Ground track

The orbit data is extracted from the following two-line orbital elements,

1 19650U 88102B   22017.55205979 -.00000241  00000-0 -98002-4 0  9996
2 19650  71.0001  92.1706 0013370 162.3654 197.7936 14.15815513712846
Epoch (UTC): 17 January 2022 13:14:57
Eccentricity: 0.0013370
inclination: 71.0001°
perigee height: 830 km
apogee height: 849 km
right ascension of ascending node: 92.1706°
argument of perigee: 162.3654°
revolutions per day: 14.15815513
mean anomaly at epoch: 197.7936°
orbit number at epoch: 71284

The dashed part of the orbit path shows where the satellite is in the earth's shadow,  

DLR